GFSFLT1_sfc_rhum_003.txt.gz
RH
31 33 33 37 42 46 51 54 59 62 69 77 77 76 82 82 81 68 69 74 66 64 62 62 64 67 67 71 68 65 70 58 55
32 33 33 37 40 44 50 54 61 64 70 73 72 71 79 81 81 80 73 78 77 64 71 57 64 64 68 66 63 66 69 52 60
29 33 36 35 39 43 47 48 53 58 63 68 69 68 71 71 76 80 78 80 80 72 68 64 66 66 64 63 63 63 70 59 60
27 34 38 37 41 42 45 45 48 53 57 64 64 67 72 73 74 75 79 83 78 83 76 70 68 68 64 62 63 65 70 70 62
26 35 40 39 40 42 43 46 46 48 50 52 58 64 72 73 74 85 82 81 82 77 80 70 67 66 66 65 62 63 68 65 55
35 39 41 42 41 46 46 46 51 46 49 46 48 59 63 69 73 74 76 81 72 80 83 82 65 68 71 67 64 66 68 67 62
35 40 46 45 46 52 53 55 58 56 50 46 48 51 59 70 72 71 82 84 93 85 87 82 84 78 76 68 65 63 60 60 66
39 41 45 48 48 58 62 61 62 59 53 54 53 60 61 68 70 71 81 93 95 92 94 95 82 80 78 71 63 50 63 64 66
40 40 42 45 46 51 56 58 60 58 59 57 61 66 66 68 74 83 85 88 91 90 92 90 84 79 79 80 64 72 79 73 63
39 39 39 41 46 49 52 51 55 56 60 59 66 72 70 74 80 84 88 85 88 92 94 94 84 80 79 79 78 83 86 87 63
35 36 38 42 37 46 52 44 44 51 57 68 72 77 76 79 81 83 86 86 89 91 91 85 81 79 79 77 70 89 91 94 76
31 36 40 43 39 43 53 50 53 59 64 68 73 78 80 83 81 83 85 84 87 87 85 81 85 76 80 79 80 94 94 92 88
33 36 42 47 48 50 52 56 55 61 63 70 75 76 80 82 82 83 82 80 85 83 80 89 76 79 81 85 84 99 98 96 99
45 45 51 50 49 53 61 65 61 67 71 72 73 78 82 85 84 82 79 82 82 82 85 82 87 89 86 85 86 88 93 100 93
46 47 50 49 57 63 67 66 63 74 82 83 87 85 91 92 85 77 75 85 84 83 84 88 90 84 76 76 72 98 98 100 99
57 60 60 53 53 65 70 74 72 85 91 94 91 93 96 94 89 88 84 82 83 75 81 81 77 64 66 69 86 83 99 100 99
58 60 65 62 64 69 79 81 83 84 88 87 91 93 92 90 88 86 81 70 69 66 65 90 95 91 66 76 71 70 65 64 65
68 70 70 68 68 74 79 80 82 81 84 86 87 85 84 84 76 78 76 76 71 66 83 88 75 65 55 60 65 66 74 70 57
75 80 77 77 80 87 88 82 84 85 85 81 80 82 79 76 72 70 65 76 83 98 98 100 100 100 80 68 87 90 88 85 85
73 59 65 77 80 81 84 82 81 81 82 80 79 77 79 70 77 68 70 73 69 67 75 94 94 95 89 83 82 89 91 90 90

GFSFLT1_sfc_rhum_006.txt.gz
RH
17 21 19 23 28 31 37 39 43 47 55 67 66 66 72 73 72 57 55 57 44 42 39 38 48 64 57 55 54 56 56 46 46
16 20 20 21 25 29 34 38 44 50 58 62 61 60 68 73 72 70 56 59 59 46 53 38 51 58 57 51 54 54 57 45 52
16 19 21 20 22 26 30 33 37 44 49 58 57 57 60 61 64 67 65 61 66 62 54 58 54 57 52 52 54 54 60 49 52
13 17 21 21 21 23 28 29 33 38 44 51 53 54 59 60 58 59 64 63 70 68 67 63 60 61 56 53 54 56 61 59 50
8 15 20 22 22 23 26 30 30 32 36 41 46 50 59 58 58 58 61 72 73 81 73 66 66 65 63 66 52 55 59 57 47
13 20 22 24 23 27 28 29 32 30 32 33 35 45 48 54 56 59 62 70 72 74 70 78 73 72 76 70 71 56 58 59 57
16 25 27 28 27 31 33 35 40 40 33 31 32 35 43 54 56 57 63 67 80 78 71 75 86 81 83 66 62 63 60 55 57
16 26 29 32 32 38 45 44 44 44 38 38 35 40 41 49 57 60 66 73 76 75 72 72 75 76 69 68 65 60 61 56 52
16 26 28 32 35 38 43 44 46 46 46 42 44 48 48 51 62 67 71 80 80 73 76 73 77 73 66 66 58 62 74 62 53
17 23 27 32 35 36 40 42 46 47 49 47 50 56 55 59 66 72 76 77 78 76 78 77 66 65 66 68 67 77 78 80 51
16 22 26 30 27 34 41 35 36 42 46 55 56 62 62 64 69 73 76 80 78 76 67 70 70 69 70 66 59 85 90 86 63
21 23 26 30 29 36 43 36 41 45 47 53 57 62 64 66 68 72 76 79 79 74 70 66 65 66 68 70 67 92 90 90 57
21 25 27 31 32 37 38 39 39 46 47 53 58 61 64 67 70 71 76 78 78 80 73 67 57 64 67 69 74 94 90 86 50
26 30 35 36 37 38 43 41 41 46 48 50 51 57 62 69 71 74 78 80 83 81 77 77 73 71 66 73 84 74 96 95 72
38 37 34 31 40 46 45 44 46 53 56 57 60 64 69 79 78 73 68 86 88 88 86 82 77 88 84 73 66 96 98 99 94
33 32 31 31 40 51 53 54 53 60 72 71 71 78 82 84 81 78 80 88 88 80 79 65 75 89 67 89 60 82 99 100 100
40 40 39 37 42 50 62 66 64 69 75 74 75 82 84 86 88 84 80 76 78 74 66 67 82 77 87 88 85 64 62 87 76
47 49 45 43 46 55 66 69 71 68 72 74 77 84 81 78 75 82 80 78 73 57 72 65 52 59 72 72 83 60 70 62 45
61 57 57 58 59 65 68 71 72 72 76 77 74 72 68 61 58 62 66 65 63 96 90 100 100 100 85 77 88 91 87 87 89
65 58 60 60 61 64 67 69 69 69 71 69 70 62 64 52 56 47 51 53 50 51 72 93 92 91 91 88 89 86 86 88 91

GFSFLT1_sfc_rhum_009.txt.gz
RH
9 15 16 16 21 26 33 35 41 45 56 71 71 68 72 72 72 52 49 56 44 41 37 38 60 59 56 56 52 54 57 48 47
8 12 15 17 18 22 29 34 42 47 55 65 66 60 70 73 71 70 53 61 62 44 52 36 46 54 58 56 51 55 58 48 56
8 10 14 16 17 20 25 28 34 42 48 60 59 59 62 63 66 70 67 64 64 60 53 55 56 58 58 56 56 59 64 55 57
8 10 13 15 16 18 22 24 30 36 42 52 56 56 58 61 61 61 66 64 63 64 60 63 58 66 62 59 61 63 67 63 55
8 9 12 15 15 17 20 24 26 29 33 37 46 50 59 61 61 61 61 67 64 67 68 64 64 65 68 60 64 72 65 62 55
10 9 11 14 15 17 20 22 26 24 29 28 32 45 48 55 58 60 62 67 64 70 70 70 62 66 71 65 63 62 64 64 73
10 11 17 15 17 20 21 25 32 30 26 24 27 33 37 52 58 59 58 64 69 67 73 73 69 67 70 68 65 64 61 61 62
10 10 18 21 21 27 32 33 36 35 28 30 28 37 38 47 58 59 61 64 69 71 73 73 71 69 69 70 54 48 66 57 57
10 10 11 21 24 26 33 35 38 38 37 34 35 44 42 50 61 65 66 69 73 78 77 74 72 70 72 64 47 61 75 63 53
11 10 10 19 24 27 31 32 39 40 43 38 43 48 49 53 63 68 71 72 78 82 82 75 73 70 63 63 62 90 82 79 51
11 12 12 15 19 26 34 29 30 36 40 51 53 57 56 58 63 68 72 78 81 84 80 77 73 72 66 68 65 87 84 83 57
10 10 10 15 20 26 38 35 39 44 44 50 52 56 60 60 60 66 68 75 78 78 81 79 71 69 74 76 70 87 88 82 63
14 13 10 19 23 27 35 38 36 44 45 49 53 56 57 61 64 67 67 72 83 82 80 76 61 64 77 78 72 91 91 85 74
17 16 21 26 28 39 43 40 37 50 48 49 47 50 54 61 64 69 70 75 81 81 82 82 83 79 77 71 73 76 96 94 79
22 23 27 28 36 42 41 42 47 53 57 55 57 59 60 66 69 63 73 85 79 82 87 83 80 83 76 61 78 91 94 95 96
33 34 34 32 36 46 44 50 52 59 66 63 64 66 70 73 80 77 79 83 85 83 84 82 73 70 72 78 91 91 99 100 99
31 31 36 36 40 48 54 54 53 62 66 65 69 77 85 85 83 81 80 74 75 79 75 68 65 69 80 78 75 72 65 84 75
36 38 40 43 48 54 59 61 65 62 66 67 68 75 79 82 74 78 82 77 74 70 73 68 56 61 66 58 59 83 80 80 73
45 46 47 53 53 58 63 64 67 68 68 66 68 71 65 65 65 71 76 71 69 97 92 99 99 93 76 63 87 91 87 85 83
66 48 48 50 54 57 63 64 68 71 71 70 70 59 57 48 54 48 56 51 52 58 74 90 90 92 92 88 86 86 83 83 82

GFSFLT1_sfc_rhum_015.txt.gz
RH
28 25 21 23 32 34 40 43 54 64 73 74 78 80 81 74 89 70 72 80 86 75 73 72 79 77 77 79 74 84 86 86 84
24 20 18 22 27 32 40 42 56 58 76 75 77 77 82 80 77 80 76 85 83 84 71 72 77 80 77 75 78 79 85 89 84
24 23 23 22 25 31 39 40 49 54 70 74 76 72 80 81 78 75 73 90 80 83 76 81 75 82 75 84 75 85 91 86 88
22 21 22 22 25 29 38 39 46 53 64 73 76 77 74 80 81 80 74 84 83 81 79 84 78 78 80 78 80 84 91 86 83
17 20 19 21 24 27 38 40 42 50 65 70 72 74 76 77 80 80 80 74 82 89 73 84 77 76 80 78 75 78 84 82 75
21 22 28 23 22 29 37 40 41 47 56 68 69 73 76 77 77 80 80 77 77 83 79 78 78 79 77 79 79 79 82 80 83
16 25 21 28 23 29 32 39 42 44 50 59 67 72 75 77 76 76 76 77 75 78 81 86 75 76 77 76 80 74 80 83 86
18 21 24 33 27 29 33 39 42 43 46 49 60 68 73 73 73 73 76 77 80 77 79 82 87 84 84 85 82 73 89 82 85
16 15 28 35 33 28 32 35 42 43 46 48 50 64 68 68 71 74 77 80 82 85 82 89 86 91 88 89 79 82 85 80 84
18 17 28 32 36 33 31 35 38 44 46 45 50 57 65 66 68 76 77 80 82 90 87 86 93 87 90 90 88 93 90 88 87
19 18 24 33 30 47 38 36 36 39 43 48 51 56 63 64 70 72 77 78 84 79 86 83 95 96 96 92 95 89 94 89 88
14 14 14 18 37 42 48 36 38 40 43 49 49 56 59 62 66 72 76 81 79 80 92 95 98 98 96 95 96 94 96 88 82
20 22 15 13 18 34 38 47 40 41 44 49 49 47 57 59 62 70 79 78 82 97 96 98 98 97 94 94 92 93 89 89 75
36 40 23 24 30 41 43 53 41 44 43 44 51 46 82 68 71 79 79 94 97 97 97 95 97 94 88 80 87 96 91 92 78
35 35 50 34 54 54 66 60 53 60 56 66 68 78 84 90 88 87 95 97 96 96 95 95 93 87 89 96 96 98 97 94 92
38 56 67 73 64 76 78 75 64 76 89 81 81 86 91 88 89 92 96 97 98 99 98 95 94 88 95 98 98 98 99 98 96
74 75 69 71 78 84 88 85 82 84 81 80 84 91 95 93 94 95 95 97 95 94 95 91 90 96 99 98 98 99 100 100 99
79 78 76 72 78 87 89 86 86 81 84 86 92 92 96 96 95 95 98 98 99 91 94 90 97 97 96 98 100 99 99 99 99
88 86 90 89 86 89 93 92 93 92 92 92 95 95 93 92 90 88 87 86 86 93 95 93 95 97 91 92 100 99 95 99 98
90 92 91 87 88 88 92 93 92 91 91 91 91 90 94 91 84 84 83 83 85 91 90 93 96 94 90 90 97 94 94 91 85

GFSFLT1_sfc_rhum_021.txt.gz
RH
29 31 32 35 36 38 41 48 58 63 70 74 77 78 77 74 70 70 69 79 78 78 92 90 86 89 91 88 83 89 89 93 91
29 30 30 32 33 35 38 42 53 61 66 67 78 79 77 77 73 71 74 85 78 81 84 86 91 89 89 88 81 86 90 95 92
31 29 29 29 30 31 35 38 45 55 60 62 68 75 73 75 76 75 76 83 85 89 86 86 91 91 87 86 82 86 91 95 92
28 30 27 27 28 28 32 36 42 53 58 60 60 70 71 72 75 76 78 78 82 87 89 90 87 88 85 85 83 85 89 95 94
29 28 27 25 24 27 32 37 40 53 56 60 58 64 68 71 72 75 80 77 78 84 85 87 84 86 86 84 81 80 85 91 86
30 29 30 28 32 31 32 37 40 52 55 60 58 64 68 70 72 76 79 79 75 89 83 85 84 84 85 85 83 84 80 84 87
36 35 31 33 34 35 34 37 42 51 56 58 59 64 69 73 74 75 74 74 76 79 87 89 85 84 84 82 81 81 83 82 88
30 34 31 32 27 36 37 39 44 48 55 60 59 65 70 72 74 74 77 79 77 76 85 83 86 86 86 85 82 79 83 89 91
32 30 28 26 24 27 32 35 43 44 55 60 62 67 71 71 76 77 81 84 85 83 85 86 90 90 87 90 83 85 87 82 92
22 28 24 26 23 22 24 30 37 44 52 55 66 70 70 73 76 81 84 85 88 90 87 90 96 91 90 93 89 90 90 88 93
25 26 26 24 20 28 31 32 36 39 47 58 67 71 73 75 78 80 83 87 90 91 88 95 97 96 94 91 91 94 93 91 92
18 23 25 27 29 24 28 32 37 42 49 56 67 72 73 75 79 81 83 89 90 90 89 90 97 96 96 95 96 98 96 96 94
22 21 25 32 42 45 39 36 38 45 50 56 67 70 71 72 77 81 85 85 87 85 90 94 96 97 96 98 97 100 98 96 98
38 35 26 26 44 50 40 43 44 49 50 55 56 63 66 70 76 80 81 83 89 94 96 96 96 96 98 98 98 100 99 99 98
82 94 96 86 38 35 55 53 45 50 53 49 52 56 64 72 74 78 80 91 94 96 96 96 99 99 100 100 99 99 99 98 99
87 88 97 98 98 86 62 54 59 49 49 50 54 58 61 68 74 77 86 95 96 98 97 98 99 99 99 99 100 99 100 99 94
81 78 73 92 96 97 97 94 93 71 48 52 56 60 61 66 76 79 88 94 95 94 98 99 99 99 99 99 100 100 99 99 99
91 89 85 77 86 89 89 91 92 84 89 75 63 59 73 74 81 89 97 99 99 98 98 99 99 99 98 98 98 98 99 99 98
99 98 94 91 84 83 86 88 89 78 88 98 85 88 93 94 97 99 99 99 100 100 100 100 100 100 100 100 99 100 100 100 100
100 94 95 96 94 87 92 95 92 91 88 98 97 95 99 99 99 99 99 99 98 99 100 100 100 100 100 100 100 100 100 100 100

GFSFLT1_sfc_rhum_024.txt.gz
RH
36 40 42 43 44 47 51 55 61 68 75 80 78 79 81 80 80 74 74 79 78 82 84 87 92 91 89 90 88 86 89 85 82
32 33 38 41 42 43 48 52 58 68 74 77 77 76 78 80 79 78 77 81 81 79 85 84 91 90 90 91 87 87 89 84 86
31 30 33 34 37 39 42 45 52 60 67 74 73 75 75 74 77 78 77 80 83 82 83 87 91 91 90 91 88 87 89 88 88
29 30 31 32 33 35 38 39 48 56 62 69 70 76 77 76 76 77 77 80 81 83 83 88 90 91 92 91 89 88 87 88 88
35 35 34 32 30 32 35 39 41 53 58 61 65 73 78 78 78 79 78 81 80 84 86 88 87 90 91 90 88 87 87 86 83
37 42 41 37 34 34 34 38 42 45 53 54 57 65 73 76 76 79 81 82 79 86 87 89 86 88 90 90 88 88 86 85 85
29 40 45 42 38 34 35 39 44 48 52 52 56 58 68 75 75 76 77 80 80 84 86 88 88 88 89 88 87 85 84 84 87
34 39 47 49 40 40 45 46 49 50 54 58 58 64 65 72 75 75 78 82 83 82 88 86 85 87 87 87 84 78 86 86 87
24 34 41 47 44 44 46 45 51 52 58 60 62 68 68 71 76 78 80 83 85 86 89 88 89 88 87 88 79 85 89 84 89
21 22 29 44 42 39 41 42 48 50 55 57 65 70 71 75 78 82 82 83 85 86 88 90 93 89 88 90 88 91 91 89 90
19 21 31 39 38 36 36 34 34 49 53 63 68 72 74 77 80 82 83 86 88 87 84 88 92 93 92 90 89 94 92 91 89
19 23 28 31 34 36 42 44 50 53 56 64 71 73 75 77 79 82 83 88 89 87 87 88 93 93 94 94 93 96 96 94 92
23 25 28 33 38 44 42 49 50 54 56 64 70 74 73 75 79 82 84 85 87 86 87 91 92 95 94 92 92 99 97 95 95
62 52 49 36 46 51 60 58 58 58 58 63 62 66 72 77 79 82 80 84 84 90 93 93 95 94 95 94 94 97 99 97 95
96 99 98 90 67 70 67 69 68 71 72 64 69 74 76 80 81 78 78 86 91 94 93 95 97 97 96 97 97 100 100 100 100
84 92 96 96 93 93 94 95 89 76 90 75 72 78 84 82 81 82 82 91 95 95 95 94 96 98 97 97 100 99 100 100 100
81 79 78 92 91 87 87 90 89 90 91 93 77 81 85 85 84 85 84 87 87 87 94 97 98 98 98 99 99 99 99 98 99
97 96 92 84 85 87 88 86 84 82 84 95 93 83 84 85 82 88 94 98 98 94 93 94 95 96 99 99 99 99 100 100 99
93 94 94 94 96 95 96 94 92 88 86 92 99 96 92 92 94 95 99 99 99 100 100 100 100 100 98 98 100 99 100 100 100
98 93 97 98 97 98 95 95 94 93 95 92 98 99 95 97 99 99 98 99 98 99 100 100 100 100 100 100 100 100 100 100 100

GFSFLT1_sfc_rhum_027.txt.gz
RH
31 35 37 40 43 47 52 53 56 59 67 76 76 76 80 80 80 65 64 68 58 58 56 56 66 73 71 74 74 74 76 68 64
28 33 34 37 40 43 48 51 56 60 66 73 73 70 76 79 78 76 67 71 72 58 68 54 64 70 73 74 75 75 77 62 72
22 23 30 32 36 38 42 43 49 54 60 68 69 70 70 70 73 75 71 72 75 70 66 69 66 72 72 73 76 76 80 70 72
18 22 25 27 32 36 39 40 43 50 57 64 67 68 70 71 70 70 72 70 72 73 71 73 72 74 72 73 75 77 80 76 71
19 22 26 26 26 31 34 40 41 45 50 54 60 64 70 71 71 71 70 72 71 73 75 72 74 74 74 73 73 76 79 76 69
21 26 28 28 26 30 34 36 42 42 46 45 48 60 62 67 69 71 73 73 71 74 75 75 69 73 76 74 73 76 78 76 75
19 24 33 33 32 36 35 39 45 46 45 43 46 51 57 67 70 69 69 72 74 72 75 76 75 75 75 73 71 73 72 74 75
22 23 25 30 36 44 47 46 48 48 44 50 48 58 57 65 70 70 72 75 75 74 75 75 75 76 75 74 68 61 74 74 74
21 21 21 27 36 40 44 46 48 48 49 50 54 62 62 65 72 75 76 78 78 79 77 78 77 76 76 76 62 76 87 77 72
22 20 22 26 32 38 42 40 47 47 51 53 59 64 64 67 73 77 78 76 79 80 80 79 80 78 76 78 76 86 90 89 67
19 20 20 25 19 27 42 34 29 42 45 60 64 66 66 69 75 76 77 78 80 81 77 80 79 79 79 78 74 90 91 89 74
21 21 22 23 18 25 41 41 42 48 49 57 62 65 69 70 72 74 76 79 80 78 77 78 78 76 81 82 78 94 93 90 74
16 17 18 23 23 30 33 42 36 46 47 55 62 62 66 69 71 74 76 78 80 78 76 75 67 75 78 83 79 98 95 89 61
31 32 28 28 28 33 40 43 40 53 49 54 54 54 58 67 72 76 76 82 80 79 79 76 79 78 79 82 83 82 98 97 72
64 66 59 34 41 51 58 55 51 57 62 56 58 60 66 73 76 68 66 82 83 82 85 87 85 85 84 78 80 96 99 98 89
71 69 67 58 58 70 69 66 58 65 73 64 63 68 74 75 76 75 75 81 83 86 91 89 88 93 90 91 94 92 100 100 100
66 69 70 61 61 67 74 75 75 75 75 70 64 70 74 75 77 78 77 69 71 73 85 87 89 95 96 94 97 99 99 99 99
62 66 66 65 66 66 71 70 70 65 66 76 74 69 66 70 65 75 75 73 70 75 77 74 79 74 89 97 100 99 100 100 99
74 75 76 76 75 74 77 75 76 75 76 73 73 68 62 58 54 56 64 89 98 100 97 100 100 100 92 98 99 100 100 100 100
90 85 79 78 82 80 81 79 80 80 83 82 80 78 76 64 73 55 82 98 97 100 100 100 100 100 100 100 100 100 100 100 100

GFSFLT1_sfc_rhum_030.txt.gz
RH
15 21 23 26 31 34 38 38 43 47 56 69 68 67 74 75 75 55 55 59 46 46 41 42 50 58 60 63 62 64 66 60 59
10 17 24 26 28 31 36 40 45 50 58 67 66 61 70 75 73 70 55 63 62 46 56 41 49 54 62 60 62 65 69 57 65
11 16 22 24 26 28 31 34 38 46 52 61 62 60 62 62 65 70 67 64 67 62 54 58 51 57 59 60 62 65 71 61 64
11 14 19 20 22 24 26 30 35 40 46 54 56 57 61 62 60 60 65 63 65 66 61 62 62 63 61 59 62 66 71 68 60
10 13 14 15 17 20 24 28 30 34 39 42 48 53 62 63 63 63 59 67 64 67 69 63 66 64 65 62 59 64 69 69 58
12 13 15 16 15 17 21 25 30 30 34 34 36 49 51 55 58 60 63 66 66 68 69 68 58 63 68 66 62 64 65 67 66
11 15 17 17 17 18 20 26 34 37 31 32 33 37 43 54 59 60 60 65 68 65 69 70 68 66 67 65 62 60 60 62 65
12 13 13 17 22 24 29 30 36 41 35 35 34 42 42 51 60 62 63 67 69 68 68 68 68 68 66 66 57 49 64 63 63
13 13 11 11 16 22 27 31 36 36 42 39 40 47 47 53 62 67 68 70 72 73 71 71 71 69 68 67 50 63 76 68 60
12 13 13 14 14 16 23 26 32 35 43 40 46 52 54 58 64 69 71 69 73 75 75 72 75 71 69 70 68 74 80 83 56
12 12 12 13 9 11 18 19 15 28 31 49 51 57 58 61 65 68 71 73 74 76 72 74 73 73 73 71 66 83 84 83 66
12 13 12 12 10 12 16 17 20 24 33 40 49 56 61 62 62 65 67 74 76 73 72 72 70 68 73 75 72 89 89 86 65
10 11 12 13 12 12 15 23 21 28 31 37 50 52 56 59 62 66 68 72 76 72 70 68 58 64 68 75 73 94 92 84 53
23 20 18 18 20 21 23 28 27 34 35 38 43 46 47 56 62 68 69 74 73 74 72 67 73 72 70 73 74 75 95 94 66
34 26 27 29 32 26 26 33 34 39 52 45 48 50 52 60 65 56 53 75 75 75 74 79 77 80 70 60 70 89 98 96 90
28 32 34 36 25 34 43 48 44 47 55 53 52 56 60 61 64 63 65 73 76 66 74 61 68 58 59 53 58 66 94 98 96
41 44 50 44 42 43 54 56 53 54 60 57 58 61 62 61 63 65 64 53 58 57 54 60 55 54 54 52 59 62 66 78 82
50 54 51 49 52 56 61 62 63 61 64 63 59 59 58 60 54 63 61 62 51 52 56 51 56 54 51 54 62 66 86 98 98
57 59 58 59 58 59 61 60 63 64 64 62 59 57 48 43 40 42 50 50 58 98 94 100 100 99 75 43 75 100 100 100 100
86 63 63 65 66 65 66 66 70 76 77 67 69 63 64 45 54 40 39 42 47 49 85 100 100 100 100 100 100 100 100 100 100

GFSFLT1_sfc_rhum_033.txt.gz
RH
11 13 16 20 25 28 32 34 39 43 56 71 71 70 74 75 73 54 53 55 41 40 36 37 49 63 61 63 62 64 66 58 59
10 13 16 19 22 26 31 34 41 46 54 65 68 64 70 74 74 70 56 62 61 45 54 36 47 56 63 62 62 65 69 56 67
10 10 14 17 20 23 27 29 34 41 47 60 63 61 64 65 69 72 66 63 66 60 54 57 52 55 57 62 64 65 72 61 64
9 9 12 15 19 21 24 27 30 36 42 52 58 59 62 64 63 64 68 63 63 65 62 61 62 63 62 63 64 66 72 70 62
8 9 11 15 18 19 21 25 27 31 36 40 50 54 61 62 62 63 62 67 63 65 67 64 65 64 66 64 63 65 70 69 56
10 11 12 15 15 18 19 21 26 27 32 32 35 48 50 56 59 60 62 65 66 66 68 68 59 65 68 68 64 66 68 70 68
10 12 12 13 13 14 18 22 29 31 28 29 31 35 41 52 58 58 58 62 67 65 68 70 68 65 67 67 65 63 63 66 69
12 14 14 14 15 18 22 26 30 33 29 31 31 38 39 48 57 59 61 64 66 68 68 68 68 69 66 67 62 52 65 64 66
12 12 11 11 12 17 20 23 30 32 36 33 34 42 42 49 57 64 66 68 69 71 70 71 71 70 68 67 54 64 75 68 62
12 12 11 11 11 12 18 19 25 29 37 37 39 46 47 50 58 64 69 68 71 73 75 72 75 71 69 70 68 75 77 80 58
13 12 12 11 8 10 13 10 13 24 26 46 48 49 51 53 57 61 67 71 72 74 72 74 73 72 73 72 66 82 82 80 63
13 12 11 10 9 9 15 11 14 18 27 35 47 50 54 54 56 61 66 71 74 72 72 72 72 70 74 76 72 87 87 84 62
15 11 10 11 10 10 10 15 12 14 18 28 45 49 52 56 58 63 66 70 75 73 71 70 60 67 70 76 74 89 90 84 54
31 30 27 23 21 20 20 18 15 28 25 26 34 42 47 57 60 66 67 71 73 74 73 68 74 70 70 72 74 74 95 91 66
36 35 30 25 24 26 30 26 26 39 44 40 44 45 52 58 64 55 52 73 74 75 76 78 77 78 69 59 70 87 94 94 85
38 34 31 20 22 33 28 31 35 46 53 52 50 55 61 61 64 64 64 72 76 67 75 62 67 58 62 59 52 62 94 98 95
37 35 36 35 37 37 36 45 47 48 51 52 56 62 65 63 64 67 65 52 55 56 52 56 58 51 54 50 53 49 51 68 79
41 44 48 46 47 48 54 58 60 55 55 54 54 56 55 57 50 60 62 62 46 48 55 48 46 49 46 46 46 44 59 60 59
55 51 52 55 55 57 58 58 60 62 61 63 57 56 50 44 41 43 50 48 57 93 92 96 100 100 89 59 87 97 99 100 100
73 68 58 57 58 58 61 63 64 64 63 59 60 57 60 39 44 33 34 40 43 43 67 100 100 100 100 100 99 100 100 100 100

GFSFLT1_sfc_rhum_036.txt.gz
RH
14 16 16 24 31 33 37 37 44 51 67 77 77 74 79 77 80 68 63 70 56 56 55 55 70 72 74 77 78 78 81 80 79
13 14 16 22 28 32 36 37 44 51 64 73 75 73 77 80 78 77 69 71 70 62 66 52 66 71 73 74 75 78 82 74 82
11 12 15 19 25 29 34 34 38 44 55 68 72 72 72 73 75 76 73 71 74 68 67 66 68 72 72 74 75 78 82 78 79
10 12 15 17 24 26 31 32 35 40 47 62 68 70 73 72 72 72 73 71 72 73 69 75 70 76 75 75 75 76 81 80 77
10 13 16 17 20 24 28 33 34 38 42 47 59 67 72 72 72 72 73 73 70 73 76 70 74 73 74 75 74 75 78 79 69
14 16 15 16 19 23 26 30 34 35 39 39 47 61 64 67 68 70 72 74 72 71 74 74 68 72 76 74 73 76 76 77 78
13 18 18 18 20 24 25 30 38 38 37 37 40 50 57 65 67 67 68 71 74 71 72 75 72 72 74 73 72 73 73 74 78
16 19 19 22 21 30 33 36 39 40 36 40 38 47 54 60 65 66 68 72 72 74 74 71 74 74 72 73 70 63 73 73 76
19 19 17 18 23 25 29 35 40 39 40 39 41 49 49 58 65 68 71 72 74 74 76 75 75 76 75 73 62 73 79 74 71
14 13 13 15 19 23 27 27 38 40 42 41 46 50 53 57 64 68 71 71 73 76 77 76 79 77 76 76 73 80 81 82 66
15 15 17 21 12 18 27 17 16 30 38 50 52 58 56 59 63 66 70 73 75 76 74 77 78 78 78 78 73 83 84 82 69
14 17 19 19 13 15 32 24 26 32 34 48 52 54 60 59 61 66 68 74 76 75 76 76 77 75 79 80 78 88 88 86 69
29 30 32 35 29 27 19 30 20 37 34 43 53 53 54 60 61 65 67 71 77 76 75 76 70 74 75 80 78 89 92 88 66
34 36 37 35 37 38 40 40 37 46 39 40 44 50 53 60 64 66 68 73 76 77 78 76 79 77 76 78 78 78 96 94 74
40 41 38 32 38 41 38 42 46 55 58 56 54 56 58 64 69 60 55 76 77 78 80 83 82 83 78 71 76 93 95 97 95
46 45 42 35 34 42 42 45 53 58 67 64 60 66 70 69 70 70 70 77 79 75 82 77 80 76 74 73 68 70 96 99 97
51 54 48 48 53 53 53 51 52 63 64 62 66 70 74 74 74 75 73 63 68 68 69 74 76 73 74 67 67 68 66 78 90
54 58 58 56 62 62 64 69 73 70 72 67 66 69 70 73 65 76 73 72 62 68 69 66 66 68 66 64 65 68 93 84 71
61 66 68 64 62 60 60 60 64 68 68 73 70 69 62 58 56 58 64 67 70 95 88 97 100 100 93 79 96 100 100 100 100
70 72 70 70 72 70 74 74 66 65 68 64 74 73 73 55 59 51 62 63 63 68 93 100 100 100 100 100 99 100 100 100 100

GFSFLT1_sfc_rhum_042.txt.gz
RH
44 40 38 36 39 37 42 56 58 59 66 69 76 73 74 73 78 74 70 76 78 73 76 77 78 84 85 87 89 93 93 94 97
40 39 36 35 38 38 40 52 60 62 64 63 70 72 72 79 81 71 72 76 76 78 85 78 78 81 83 84 88 91 95 96 95
33 34 35 33 36 38 38 44 53 59 62 62 65 70 69 68 73 83 74 70 85 91 77 80 78 80 84 83 82 87 95 97 95
30 31 33 32 35 37 37 40 49 58 64 63 67 68 72 71 69 68 85 79 73 74 84 75 78 79 82 83 83 84 94 95 96
28 30 31 31 34 36 38 40 47 54 64 65 67 69 72 76 76 74 72 86 79 74 74 81 72 87 82 84 84 84 86 89 86
18 27 31 30 33 36 38 38 44 54 59 66 67 70 72 76 79 80 78 73 83 76 73 75 86 91 88 86 83 84 84 82 86
21 27 30 33 35 36 38 38 42 50 55 65 69 72 76 77 79 81 81 75 72 83 79 72 89 91 87 85 83 80 80 83 87
27 27 29 36 37 38 40 41 40 48 51 59 67 74 76 79 75 76 80 84 77 74 78 84 72 83 85 84 82 79 81 78 80
38 26 30 35 36 38 40 40 41 45 49 54 61 70 75 73 78 78 79 82 85 80 78 75 83 80 84 86 77 83 88 80 78
29 36 36 35 36 36 38 39 39 43 46 48 58 66 68 74 75 81 81 80 81 86 83 79 75 77 79 77 82 89 89 89 74
49 44 38 35 38 47 58 54 40 40 44 48 52 59 68 70 76 78 80 80 81 80 80 84 83 77 76 80 74 90 91 90 79
66 62 60 56 52 51 47 54 42 42 45 48 51 54 57 68 70 77 78 81 79 77 77 77 80 80 81 77 76 92 93 93 82
68 76 68 58 53 52 49 62 47 45 46 49 52 51 54 58 67 70 77 76 76 74 73 76 74 76 78 84 80 92 95 94 78
62 69 79 75 73 67 60 58 58 67 56 48 47 51 51 59 59 66 66 72 71 72 74 73 75 77 75 78 84 83 98 98 82
67 66 76 79 84 89 88 68 54 55 59 63 70 69 76 67 66 62 65 69 72 72 72 78 79 78 79 78 78 98 100 99 98
75 71 69 76 85 92 89 87 91 95 97 86 78 81 81 84 87 83 81 78 76 77 76 76 81 81 83 82 86 91 100 100 99
71 76 75 78 88 89 94 94 92 94 93 93 94 79 88 90 92 92 88 81 81 79 83 84 82 88 88 87 95 96 96 99 98
50 72 80 88 92 91 90 92 89 85 82 87 92 95 93 94 96 97 95 97 98 88 86 84 88 94 94 97 97 96 100 99 99
56 54 88 95 94 94 92 92 83 82 84 91 94 93 96 98 98 98 98 99 100 100 99 99 100 100 100 94 100 100 100 100 100
67 66 84 94 94 95 95 91 84 87 88 93 92 93 88 95 99 98 98 97 98 98 94 100 99 96 96 90 96 99 100 100 100

GFSFLT1_sfc_rhum_045.txt.gz
RH
40 46 48 47 47 50 50 51 57 60 68 68 69 74 72 72 71 73 73 77 85 80 77 78 78 88 90 91 93 94 95 97 97
41 42 43 43 43 44 46 50 52 61 66 66 69 71 71 72 72 73 73 79 76 77 83 80 84 82 89 94 94 94 95 97 96
39 39 44 42 41 41 44 49 52 57 60 64 67 68 68 71 72 73 71 78 83 83 80 82 82 86 84 93 95 94 96 96 95
37 41 42 39 38 38 39 48 54 57 59 61 65 68 68 70 73 73 71 78 83 84 82 84 90 90 88 91 92 93 94 95 96
30 36 40 36 36 37 39 40 53 57 58 59 60 66 68 70 73 77 79 79 80 80 87 86 81 92 89 88 88 89 89 89 87
23 34 37 35 35 36 40 39 45 54 58 59 56 62 68 70 71 74 79 85 85 79 77 87 85 88 88 87 86 88 89 86 87
16 28 33 34 35 36 39 39 42 52 58 59 58 62 66 73 75 77 73 73 79 83 82 81 86 82 82 83 87 87 86 86 87
18 24 31 34 35 37 40 41 42 51 55 62 60 66 70 73 78 78 79 78 76 78 83 80 77 83 84 86 83 82 86 87 87
22 32 33 34 34 36 40 40 43 48 56 63 64 68 72 72 76 81 83 84 84 80 82 86 82 77 80 86 82 87 90 84 84
38 28 32 34 33 36 37 40 40 48 55 59 68 72 73 75 78 82 84 85 89 87 83 81 86 86 79 82 81 89 92 92 77
85 65 39 34 34 36 37 39 39 44 52 59 69 74 76 77 81 83 82 85 89 91 85 85 83 82 85 83 80 92 93 92 85
86 92 68 58 50 48 53 43 42 46 52 57 64 71 74 76 78 82 85 86 85 85 89 88 85 82 81 80 82 93 95 95 86
77 87 88 72 60 58 56 55 45 49 53 56 60 64 68 71 75 79 82 85 84 81 82 82 84 85 85 84 78 92 94 96 83
71 78 88 92 91 76 66 62 47 47 49 52 49 54 59 68 71 74 77 80 81 81 81 81 82 82 81 83 87 82 96 96 81
77 77 84 88 95 96 94 72 72 81 80 81 68 66 62 66 67 70 71 79 80 81 83 85 85 86 85 81 81 98 100 98 97
56 80 82 85 91 96 95 94 92 93 96 94 84 82 74 71 72 67 66 75 78 82 81 81 86 85 85 84 88 87 100 100 98
51 61 85 87 88 95 98 96 89 91 89 91 94 94 90 92 94 86 68 68 72 75 80 81 79 85 88 89 95 97 96 99 99
69 70 79 93 95 95 96 95 92 89 92 91 93 94 95 94 97 98 98 99 98 85 79 79 80 80 87 97 98 97 99 99 99
76 86 91 95 92 96 97 95 91 92 93 94 94 94 95 96 98 99 99 98 98 98 99 100 100 100 100 99 100 100 100 100 100
79 68 78 94 96 96 96 95 92 92 93 92 91 91 94 92 98 99 100 99 98 98 98 100 100 100 100 100 100 100 100 100 100

GFSFLT1_sfc_rhum_048.txt.gz
RH
53 55 56 55 56 57 57 58 61 68 72 74 76 77 81 80 78 75 76 83 86 82 84 86 88 89 90 90 90 90 92 88 88
52 50 52 55 53 53 56 57 60 68 71 72 74 72 76 79 78 78 78 85 85 84 88 79 85 87 89 89 89 90 93 89 90
45 47 45 48 50 50 53 51 54 62 65 70 70 72 72 71 75 78 77 84 86 87 85 84 86 87 88 89 90 90 93 92 90
44 44 44 46 48 46 50 50 52 59 62 68 68 71 73 73 74 76 77 82 83 84 84 86 87 88 87 87 89 91 92 92 90
44 42 43 43 42 44 45 49 50 53 61 62 64 70 74 73 75 77 77 82 84 84 85 85 86 88 88 87 87 89 91 90 87
36 47 46 44 42 43 45 47 52 53 59 59 60 69 70 71 73 77 79 80 83 84 86 85 82 85 88 87 87 90 90 89 89
23 30 48 45 45 42 42 47 55 59 58 58 60 64 69 74 74 77 78 80 83 85 85 87 86 84 85 86 86 88 88 88 89
41 29 24 42 46 44 46 49 56 61 60 62 61 67 70 73 76 78 80 84 86 87 85 83 82 85 84 85 83 78 88 88 88
87 59 30 28 43 44 45 48 49 60 64 64 64 69 70 74 78 80 82 83 85 88 89 87 85 85 84 85 74 82 89 87 86
94 92 48 25 38 40 42 44 47 56 64 65 69 71 72 76 81 84 85 85 86 87 87 88 89 87 86 86 86 89 90 91 79
82 92 87 44 36 39 42 40 41 52 59 71 73 75 77 78 82 86 86 88 90 90 86 87 89 89 88 86 82 92 92 92 85
79 84 98 62 46 49 52 47 50 57 63 69 75 77 79 80 82 85 87 90 90 90 89 89 87 86 90 91 87 94 94 94 86
78 81 91 89 62 61 57 60 51 59 64 70 78 76 78 80 82 84 86 86 89 88 89 87 83 85 86 88 88 96 96 95 80
63 79 88 91 81 71 63 57 55 64 66 69 69 72 77 82 83 85 85 87 86 87 88 88 90 90 87 88 88 86 96 98 86
62 78 86 87 94 96 87 73 60 69 72 74 76 76 78 82 84 78 78 88 89 89 89 92 92 92 90 86 88 99 98 97 97
77 76 84 85 92 89 89 91 84 88 95 88 81 78 78 81 84 82 82 88 90 89 90 87 89 88 87 86 84 84 100 100 98
85 88 85 85 90 94 94 91 88 90 90 92 91 90 89 86 84 84 82 80 82 84 85 87 85 87 86 84 85 89 90 95 97
74 84 90 91 92 94 96 94 93 92 91 89 91 93 93 94 91 90 89 89 88 82 81 83 82 81 82 92 95 91 96 98 98
76 74 84 91 94 94 95 94 92 94 94 90 90 90 88 92 96 96 96 96 95 99 99 100 100 100 98 97 99 100 100 100 100
74 73 79 92 97 95 94 94 92 92 91 90 89 89 88 88 92 97 98 97 95 96 95 99 100 100 100 100 100 100 100 100 100